Location: Godiavel Galaoual
(15.2485°N, 12.6604°W)
Time: 13:12:44
(UTC+00:00)

SR - All Passes

Search period start: 22 June 2021 00:00
Search period end: 02 July 2021 00:00
Orbit: 575 x 880 km, 66.7° (Epoch: 21 June)

Date Brightness Start Highest point End Pass type
(mag) Time Alt. Az. Time Alt. Az. Time Alt. Az.
22 Jun - 02:10:18 10° N 02:14:27 30° ENE 02:18:20 10° SE visible
22 Jun - 03:53:57 10° WNW 03:56:03 13° WSW 03:58:05 10° SW night (unlit)
22 Jun - 14:43:14 10° SSE 14:47:59 27° ESE 14:52:53 10° NE daylight
22 Jun - 16:25:03 10° WSW 16:29:53 27° WNW 16:34:49 10° N daylight
23 Jun - 01:22:55 10° NE 01:24:26 11° ENE 01:25:55 10° E visible
23 Jun - 03:02:14 10° NW 03:06:31 36° WSW 03:10:32 10° S night (unlit)
23 Jun - 13:56:59 10° ESE 13:58:27 11° ESE 13:59:55 10° E daylight
23 Jun - 15:34:19 10° SSW 15:40:00 61° WNW 15:45:51 10° NNE daylight
24 Jun - 02:12:09 10° NNW 02:16:52 76° ENE 02:21:14 10° SSE night (unlit)
24 Jun - 14:44:38 10° S 14:50:15 59° ESE 14:56:04 10° NNE daylight
24 Jun - 16:29:58 10° W 16:32:32 13° WNW 16:35:07 10° NW daylight
25 Jun - 01:23:03 10° N 01:27:02 27° ENE 01:30:46 10° ESE night (unlit)
25 Jun - 03:06:12 10° WNW 03:08:39 14° WSW 03:11:03 10° SW night (unlit)
25 Jun - 13:56:01 10° SSE 14:00:39 25° ESE 14:05:22 10° NE daylight
25 Jun - 15:37:31 10° SW 15:42:29 29° WNW 15:47:35 10° N daylight
26 Jun - 00:36:44 10° ENE 00:36:59 10° ENE 00:37:15 10° ENE night (unlit)
26 Jun - 02:14:47 10° NW 02:19:08 40° WSW 02:23:12 10° S night (unlit)
26 Jun - 14:46:53 10° SSW 14:52:38 67° WNW 14:58:31 10° NNE daylight
27 Jun - 01:24:48 10° NNW 01:29:28 67° ENE 01:33:47 10° SSE night (unlit)
27 Jun - 13:57:18 10° S 14:02:54 54° ESE 14:08:38 10° NNE daylight
27 Jun - 15:42:07 10° W 15:45:06 14° WNW 15:48:09 10° NNW daylight
28 Jun - 00:35:49 10° N 00:39:36 24° ENE 00:43:10 10° ESE night (unlit)
28 Jun - 02:18:31 10° WNW 02:21:17 16° WSW 02:23:57 10° SW night (unlit)
28 Jun - 13:08:50 10° SSE 13:13:17 23° ESE 13:17:49 10° NE daylight
28 Jun - 14:49:58 10° SW 14:55:06 32° WNW 15:00:19 10° N daylight
29 Jun - 01:27:20 10° NW 01:31:44 45° WSW 01:35:51 10° S night (unlit)
29 Jun - 13:59:28 10° SSW 14:05:15 73° WNW 14:11:10 10° NNE daylight
30 Jun - 00:37:27 10° NNW 00:42:03 60° ENE 00:46:19 10° SSE night (unlit)
30 Jun - 13:09:59 10° S 13:15:32 49° ESE 13:21:13 10° NE daylight
30 Jun - 14:54:20 10° W 14:57:42 16° WNW 15:01:06 10° NNW daylight
30 Jun - 23:48:35 10° NNE 23:52:10 22° ENE 23:55:34 10° ESE visible
01 Jul - 01:30:53 10° WNW 01:33:54 18° WSW 01:36:48 10° SSW night (unlit)
01 Jul - 12:21:40 10° SSE 12:25:55 21° ESE 12:30:15 10° ENE daylight
01 Jul - 14:02:28 10° SW 14:07:43 35° WNW 14:13:03 10° N daylight
